Location: Unspecified
(0.0000°N, 0.0000°E)
Time: 09:59:18
(UTC+01:00)

Ariane H10 - Visible Passes

Search period start: 18 February 2018 00:00
Search period end: 28 February 2018 00:00
Orbit: 298 x 23493 km, 3.8° (Epoch: 16 February)

Date Brightness Start Highest point End Pass type
(mag) Time Alt. Az. Time Alt. Az. Time Alt. Az.
18 Feb 7.7 16:49:10 10° W 21:55:39 85° N 22:27:40 61° E visible
19 Feb 2.4 05:54:34 41° SSW 05:54:54 43° S 05:57:00 10° ESE visible
19 Feb 8.2 21:18:20 10° W 23:16:48 18° W 01:46:41 35° W visible
20 Feb 7.7 16:36:08 10° W 21:34:52 85° N 22:16:02 56° E visible
21 Feb 2.7 05:42:53 42° SSE 05:42:53 42° SSE 05:44:42 10° ESE visible
21 Feb 8.1 20:56:43 10° W 23:05:47 21° W 01:35:01 39° W visible
22 Feb 7.7 16:23:09 10° W 21:11:10 85° N 22:04:22 52° E visible
23 Feb 3.6 05:31:10 29° SE 05:31:10 29° SE 05:32:23 10° ESE visible
23 Feb 8.1 20:37:01 10° W 22:55:04 23° W 01:23:20 42° W visible
24 Feb 7.7 16:10:10 10° W 20:41:57 85° N 21:52:40 48° E visible
25 Feb 4.5 05:19:24 18° ESE 05:19:24 18° ESE 05:20:02 10° ESE visible
25 Feb 8.0 20:18:36 10° W 01:11:37 46° W 01:11:37 46° W visible
26 Feb 7.8 15:57:13 10° W 19:57:57 85° N 21:40:56 44° E visible
27 Feb 5.2 05:07:37 11° ESE 05:07:37 11° ESE 05:07:41 10° ESE visible
